Flag for U.S.A. Weather past 2 weeks in Fort Wayne, Indiana, U.S.A.

Now
38 °F

Passing clouds.


Feels Like: 34 °F
Forecast: 41 / 59 °F
Wind: 5 mph from Southwest

Location: Fort Wayne International Airport

Current Time: Oct 24, 2014 at 7:45:59 AM

Latest Report: Oct 24, 2014 at 6:54 AM


Visibility: 10 mi

Pressure: 30.11 "Hg

Humidity: 93%

Dew point: 36 °F

Location of Fort WayneLocation

Historic Weather in Fort Wayne — Graph

°F

Fort Wayne temperature yesterday

Maximum temperature yesterday: 58 °F (at 3:54 PM)
Minimum temperature yesterday: 30 °F (at 7:00 AM)
Average temperature yesterday: 43 °F

Past Weeks' High & Low Weather Summary

 TemperatureHumidityPressure
High75 °F (Oct 13, 2:54 PM)100% (Oct 16, 3:54 AM)30.37 "Hg (Oct 16, 3:54 AM)
Low30 °F (Oct 23, 7:00 AM)41% (Oct 12, 2:54 PM)29.54 "Hg (Oct 14, 1:54 PM)
Average51 °F78%29.99 "Hg
* Reported Oct 9 6:54 AM — Oct 24 6:54 AM, Fort Wayne, Weather by CustomWeather, © 2014

Note: Actual official high and low records may vary slightly from our data, if they occured in-between our weather recording intervals... More about our weather records

Advertising

Fort Wayne weather history for previous 24 hours

 ConditionsComfort  
Time TempWeatherWind HumidityBarometerVisibility
6:54 AM
Oct 24
38 °FPassing clouds.5 mph93%30.11 "Hg10 mi
5:54 AM39 °FPassing clouds.5 mph89%30.11 "Hg10 mi
4:54 AM38 °FPassing clouds.No wind90%30.11 "Hg10 mi
3:54 AM37 °FPassing clouds.No wind89%30.11 "Hg10 mi
2:54 AM38 °FPartly cloudy.No wind90%30.12 "Hg10 mi
1:54 AM39 °FPassing clouds.3 mph89%30.11 "Hg10 mi
12:54 AM40 °FPassing clouds.No wind86%30.13 "Hg10 mi
11:54 PM
Oct 23
41 °FPassing clouds.No wind86%30.14 "Hg10 mi
10:54 PM44 °FPassing clouds.No wind79%30.13 "Hg10 mi
9:54 PM44 °FPassing clouds.No wind82%30.14 "Hg10 mi
8:54 PM46 °FOvercast.5 mph83%30.15 "Hg10 mi
7:54 PM50 °FMostly cloudy.3 mph66%30.16 "Hg10 mi
6:54 PM52 °FMostly cloudy.No wind61%30.15 "Hg10 mi
5:54 PM55 °FPartly sunny.No wind59%30.15 "Hg9 mi
4:54 PM57 °FBroken clouds.6 mph49%30.16 "Hg10 mi
3:54 PM58 °FPartly sunny.6 mph51%30.18 "Hg10 mi
2:54 PM57 °FScattered clouds.No wind51%30.19 "Hg10 mi
1:54 PM55 °FScattered clouds.3 mph57%30.22 "Hg10 mi
12:54 PM53 °FScattered clouds.No wind66%30.25 "Hg10 mi
11:54 AM50 °FScattered clouds.8 mph71%30.28 "Hg10 mi
10:54 AM44 °FFog.3 mph93%30.29 "Hg6 mi
9:54 AM35 °FFog.No wind100%30.29 "Hg0 mi
8:54 AM31 °FIce fog.No wind100%30.28 "Hg0 mi
7:54 AM30 °FIce fog.No wind92%30.28 "Hg1 mi
7:00 AM30 °FIce fog.No wind96%30.27 "Hg1 mi
Weather by CustomWeather, © 2014

See weather overviewHow to use our weather pages